TimeEST,TemperatureF,Dew PointF,Humidity,Sea Level PressureIn,VisibilityMPH,Wind Direction,Wind SpeedMPH,Gust SpeedMPH,PrecipitationIn,Events,Conditions,WindDirDegrees,DateUTC
12:56 AM,46.0,28.0,50,30.20,10.0,WNW,12.7,-,N/A,,Mostly Cloudy,290,2013-11-11 05:56:00
1:56 AM,46.0,28.0,50,30.22,10.0,WNW,13.8,17.3,N/A,,Scattered Clouds,290,2013-11-11 06:56:00
2:56 AM,44.1,28.9,55,30.23,10.0,WNW,8.1,-,N/A,,Mostly Cloudy,300,2013-11-11 07:56:00
3:56 AM,39.0,28.9,67,30.23,10.0,West,3.5,-,N/A,,Clear,270,2013-11-11 08:56:00
4:56 AM,36.0,28.0,73,30.24,10.0,West,4.6,-,N/A,,Clear,260,2013-11-11 09:56:00
5:56 AM,39.9,28.9,65,30.25,10.0,West,8.1,-,N/A,,Clear,270,2013-11-11 10:56:00
6:56 AM,39.0,28.9,67,30.26,10.0,West,5.8,-,N/A,,Clear,280,2013-11-11 11:56:00
7:56 AM,41.0,30.0,65,30.27,10.0,WSW,3.5,-,N/A,,Clear,250,2013-11-11 12:56:00
8:56 AM,44.1,30.9,60,30.26,10.0,WSW,6.9,-,N/A,,Clear,250,2013-11-11 13:56:00
9:56 AM,48.0,32.0,54,30.25,10.0,WSW,9.2,-,N/A,,Partly Cloudy,250,2013-11-11 14:56:00
10:56 AM,48.0,30.0,50,30.23,10.0,WSW,10.4,-,N/A,,Overcast,240,2013-11-11 15:56:00
11:56 AM,48.0,30.0,50,30.20,10.0,West,8.1,-,N/A,,Overcast,270,2013-11-11 16:56:00
12:56 PM,51.1,30.0,44,30.16,10.0,SSW,9.2,-,N/A,,Mostly Cloudy,210,2013-11-11 17:56:00
1:56 PM,51.1,28.9,43,30.13,10.0,SW,11.5,-,N/A,,Overcast,220,2013-11-11 18:56:00
2:56 PM,51.1,28.0,41,30.10,10.0,SW,11.5,-,N/A,,Overcast,230,2013-11-11 19:56:00
3:56 PM,52.0,28.0,40,30.09,10.0,South,5.8,-,N/A,,Overcast,190,2013-11-11 20:56:00
4:56 PM,51.1,28.9,43,30.07,10.0,South,4.6,-,N/A,,Overcast,190,2013-11-11 21:56:00
5:56 PM,52.0,28.0,40,30.06,10.0,Variable,4.6,-,N/A,,Overcast,0,2013-11-11 22:56:00
6:56 PM,54.0,26.1,34,30.03,10.0,SSW,11.5,20.7,N/A,,Overcast,200,2013-11-11 23:56:00
7:56 PM,53.1,26.1,35,30.01,10.0,SW,11.5,17.3,N/A,,Overcast,220,2013-11-12 00:56:00
8:56 PM,52.0,27.0,38,30.02,10.0,West,4.6,-,N/A,,Overcast,270,2013-11-12 01:56:00
9:56 PM,52.0,28.0,40,30.01,10.0,SW,8.1,-,N/A,,Overcast,230,2013-11-12 02:56:00
10:56 PM,53.1,34.0,48,30.00,10.0,West,11.5,23.0,N/A,,Overcast,260,2013-11-12 03:56:00
11:56 PM,53.1,35.1,50,30.01,10.0,West,13.8,-,N/A,,Overcast,280,2013-11-12 04:56:00